Terminal Aerodrome Forecast
Issued by NWS La Crosse, WI

Home | Current Version | Previous Version | Text Only | Print | Product List | Glossary On
Versions: 1 2 3 4 5 6 7 8 9 10 11 12 13 14 15 16 17 18 19 20 21 22 23 24 25 26 27 28 29 30 31 32 33 34 35 36
715
FTUS43 KARX 091130
TAFLSE
TAF
KLSE 091130Z 0912/1012 33012KT P6SM OVC080
     FM091600 33015G22KT P6SM OVC080
     FM091800 32015G22KT P6SM -SN BKN025
     FM100100 33011KT P6SM BKN025=

USA.gov is the U.S. government's official web portal to all federal, state and local government web resources and services.